Location: Poughquag
(41.6090°N, 73.6820°W)
Time: 12:26:11
(UTC-04:00)

Vanguard 1 - Pass Details

Date: 05 June 2020
Orbit: 650 x 3833 km, 34.2° (Epoch: 07 July)

Event Time Altitude Azimuth Distance (km) Brightness Sun altitude
Rises 07:29:44 0° 261° (W) 6,064 13.5 21.4°
Reaches altitude 10° 07:33:06 10° 259° (W) 5,391 13.3 22.0°
Maximum altitude 07:51:00 70° 181° (S) 3,749 13.4 25.3°
Drops below altitude 10° 08:14:28 10° 104° (ESE) 6,775 15.7 29.6°
Sets 08:19:22 0° 102° (ESE) 7,610 15.7 30.6°
